星链-2683 (STARLINK-2683 )

导读

STARLINK-2683是美国SpaceX公司星链(Starlink)卫星互联网星座中的一员,于北京时间2021年5月9日发射升空,属于星链第一代(V1.5)组网卫星。它运行在近地轨道,配备氪离子推进系统与相控阵通信天线,可为全球偏远地区提供低延迟宽带互联网接入。作为Starlink大规模星座部署的组成部分,该卫星承担着扩展全球网络覆盖的任务,遵循SpaceX太空碎片规范,退役后会再入大气层完全烧毁。

Basic Information
目录编号:
48462
目录名称:
STARLINK-2683
国际标识:
2021-040AL
轨道中心:
EARTH
卫星名称:
星链-2683
卫星全名:
星链-2683 (STARLINK-2683 )
卫星状态:
在轨 (已飞行1944 天)
发射日期:
2021-05-09 UTC
国别 :
美国 (US)
星等 :
--
Orbit Information
数据来源 国际轨道数据 AOE轨道数据
星历时间 2026-09-03T06:49:46+0800
1天前
查看轨道信息
2026-09-02T12:00:00+0800
2天前
查看轨道信息
半长轴 6848.872km 6848.886km
偏心率 0.0001063 0.0001619
轨道倾角 53.159° 53.157°
近地点辐角 97.592° 77.900°
升交点赤经 86.157° 89.810°
平近点角 262.520° 273.646°
近地点 470.006km 469.64km
远地点 471.464km 471.858km
周期 94.013分钟 94.013分钟
每日圈数 15.317018 15.316971
Detailed Information
固有亮度:
5
最大亮度:
2.5
卫星平台:
Starlink V1.0
覆盖范围:
全球
运营商:
太空探索技术公司
运营商所在国:
美国
制造商(研发单位):
太空探索技术公司
制造商所在国:
美国
使用方式:
暂无
Satellite Introduction
星链(Starlink)计划是由太空探索技术公司(SpaceX)提出的一个巨型低轨卫星互联网星座项目,计划在2019年至2024年间在太空搭建由约1.2万颗卫星组成的“星链”网络,其中1584颗将部署在地球上空550千米处的近地轨道,并从2020年开始工作。该卫星仍在工作。
2D Orbit Map
3D Orbit Map
Orbit Altitude Analysis Chart
Orbit Inclination Analysis Chart
Orbit Comprehensive Analysis Chart
View Comprehensive Chart